Regional Weather Roundup
Issued by NWS Wilmington, NC

Home | Current Version | Previous Version | Text Only | Print | Product List | Glossary On
Versions: 1 2 3 4 5 6 7 8 9 10 11 12 13 14 15 16 17 18 19 20 21 22 23 24 25 26 27
000
ASUS42 KILM 231913
RWRILM
RWRILM
REGIONAL HOURLY WEATHER ROUNDUP
NATIONAL WEATHER SERVICE WILMINGTON NC
300 PM EDT SUN APR 23 2017

NOTE: "FAIR" INDICATES FEW OR NO CLOUDS BELOW 12,000 FEET WITH NO
SIGNIFICANT WEATHER AND/OR OBSTRUCTIONS TO VISIBILITY.

...............WFO WILMINGTON COUNTY WARNING AREA...............

......COASTAL NC AND SC COUNTIES......

CITY           SKY/WX    TMP DP  RH WIND       PRES   REMARKS
WILMINGTON     CLOUDY    64  62  93 NE14      29.93F
N MYRTLE BEACH CLOUDY    71  65  81 E8        29.89F
MYRTLE BEACH   CLOUDY    70  64  83 E16       29.90S

......INLAND NC AND SC COUNTIES.......

CITY           SKY/WX    TMP DP  RH WIND       PRES   REMARKS
LUMBERTON      CLOUDY    59  58  96 NE12      29.93F
ELIZABETHTOWN  CLOUDY    61  58  92 E6        29.95S
WHITEVILLE     CLOUDY    63  59  87 NE9       29.92F
FLORENCE       CLOUDY    65  59  81 E15       29.89F
DARLINGTON     NOT AVBL
KINGSTREE      CLOUDY    68  61  77 NE10      29.86F
HARTSVILLE     CLOUDY    61  54  77 E10       29.90S
BENNETTSVILLE  CLOUDY    63  57  82 NE15      29.93S
CONWAY         CLOUDY    68  63  83 NE8       29.89F
GEORGETOWN     CLOUDY    73  68  83 E8G17     29.87S
MARION         CLOUDY    61  57  88 E10       29.91F

....................REST OF NORTH CAROLINA......................

.........EASTERN NC.........

CITY           SKY/WX    TMP DP  RH WIND       PRES   REMARKS
CAPE HATTERAS  CLOUDY    65  57  75 NE13G26   29.97F HAZE
JACKSONVILLE   CLOUDY    60  58  92 NE10      29.97F
MOREHEAD CITY  CLOUDY    65  61  87 NE14G22   29.96F
KENANSVILLE    CLOUDY    59  55  88 NE3       29.97F
NEW BERN       CLOUDY    59  58  96 NE14      29.99F
ELIZABETH CITY LGT RAIN  57  54  89 NE20      30.05F

.........CENTRAL NC.........

CITY           SKY/WX    TMP DP  RH WIND       PRES   REMARKS
RALEIGH DURHAM LGT RAIN  54  52  93 NE13G22   30.01F FOG
ROCKY MOUNT    CLOUDY    57  52  83 NE8       30.02F
ROANOKE RAPIDS NOT AVBL
FAYETTEVILLE   CLOUDY    60  56  86 NE10      29.95F
HOFFMAN        CLOUDY    58  54  89 E14G24    29.94F

.........WESTERN NC.........

CITY           SKY/WX    TMP DP  RH WIND       PRES   REMARKS
CHARLOTTE      DRIZZLE   53  50  89 NE10      29.94F FOG
GREENSBORO     RAIN      51  51 100 NE17      29.98F FOG
HICKORY        NOT AVBL
BOONE          NOT AVBL
ASHEVILLE      NOT AVBL

.....................REST OF SOUTH CAROLINA.....................

.........EASTERN SC.........

CITY           SKY/WX    TMP DP  RH WIND       PRES   REMARKS
CHARLESTON     MOSUNNY   82  67  60 S15       29.83F
BEAUFORT MCAS  MOSUNNY   84  69  60 S12       29.80F
HILTON HEAD    SUNNY     79  70  73 SE8       29.82F

.........CENTRAL SC.........

CITY           SKY/WX    TMP DP  RH WIND       PRES   REMARKS
COLUMBIA       CLOUDY    72  60  66 N12       29.82F
ORANGEBURG     MOSUNNY   84  61  45 S9        29.78F
SUMTER SHAW    CLOUDY    74  60  61 E17       29.82F

.........WESTERN SC.........

CITY           SKY/WX    TMP DP  RH WIND       PRES   REMARKS
GREENVILLE     NOT AVBL
ROCK HILL      CLOUDY    54  53  97 NE7       29.93F FOG
ANDERSON       CLOUDY    54  51  90 NE21G26   29.86F
CLEMSON        NOT AVBL
GREENWOOD      CLOUDY    59  54  83 NE12G18   29.87F


...................COASTAL AND OFFSHORE REPORTS..................

................LOCAL PIERS AND NC RESERVE................


STATION/POSITION TIME  SKY/WX   TEMP    WIND        PRES    VSBY
                                AIR SEA DIR/SP/G
                 (UTC)          (F)     (DEG/KT/KT) (MB)    (MI)
JOHNY MRCER PIER 1842            66 71   50/ 19/ 21 1012.6F
NC RESRV MASNBRO 1745            65      80/ 13     1014.0
OCEAN CREST PIER NOT AVBL
SPRINGMAID  PIER 1848                               1011.6F


................COASTAL AND OFFSHORE BUOYS................


STATION/POSITION TIME  SKY/WX   TEMP    WIND        PRES    VSBY
                                AIR SEA DIR/SP/G
                 (UTC)          (F)     (DEG/KT/KT) (MB)    (MI)
DIMNDSHOAL 41025 1850            66 75   20/ 17/ 23 1014.2F
WVE H/P(F/S)=  6/11 SWL H/P/D(F/S/D)=  3/ 60/11

CAPE LOOKOUT     1900            64      40/ 18/ 21 1014.0F
ONSLOW BAY 41036 NOT AVBL
ONSLOW BAY 41064 1808            65      60/ 17/ 23 1013.8F
ONSLOW BAY 41159 1843               71                N/A
WVE H/P(F/S)=  5/ 5 SWL H/P/D(F/S/D)=  2/100/11

MASNBO INL 41110 1859               68                N/A
WVE H/P(F/S)=  5/ 6 SWL H/P/D(F/S/D)=  2/110/12

WILM HARBR 41108 1847               69                N/A
WVE H/P(F/S)=  4/ 6 SWL H/P/D(F/S/D)=  2/ 90/12

27SE WRITB 41037 1808            68 71   90/ 17/ 25 1013.2R
FRYING PAN 41013 1900            74 74   60/  8/ 10 1011.8
SUNST NRSH 41024 1808            68 69   90/ 14/ 17 1012.4F
CAPRS NRSH 41029 1808            75 73  190/  8/ 12 1011.0F
EDISTO     41004 1850            75 75  160/ 14/ 17 1010.9F
WVE H/P(F/S)=  3/12 SWL H/P/D(F/S/D)=  2/ 90/12



..........OFFSHORE BUOYS BEYOND 100 NM OFFSHORE...........
.....IN A TRIANGLE---HAT TO BERMUDA TO BAHAMAS TO HAT.....


STATION/POSITION TIME  SKY/WX   TEMP    WIND        PRES    VSBY
                                AIR SEA DIR/SP/G
                 (UTC)          (F)     (DEG/KT/KT) (MB)    (MI)
150E HAT   41001 1900            73 72  210/  6/  8 1014.3
W BERMUDA  41048 1900            71 71  210/ 12/ 14 1017.0
ATLANTIC S 41049 1850            72 77  280/  2/  4 1020.1F
WVE H/P(F/S)=  6/12 SWL H/P/D(F/S/D)=  7/ 40/12

E BAHAMAS  41046 1900            76 77  110/ 17/ 21 1015.4
NE BAHAMAS 41047 1900            74 74  130/ 16/ 17 1015.9
120E CANVRL41010 1850            76 78  160/ 16/ 19 1010.8F
WVE H/P(F/S)=  6/13 SWL H/P/D(F/S/D)=  5/ 60/13


END




USA.gov is the U.S. government's official web portal to all federal, state and local government web resources and services.